EHI
0 0 0 0 0 0 0 0 0 0 0 0 0 0 0 0 0 0 0 0 0 0 0 0 0 0 0 0 0 0 0 0 0 0 0 0 0 0
0 0 0 0 0 0 0 0 0 0 0 0 0 0 0 0 0 0 0 0 0 0 0 0 0 0 0 0 0 0 0 0 0 0 0 0 0 0
0 0 0 0 0 0 0 0 0 0 0 0 0 0 0 0 0 0 0 0 0 0 0 0 0 0 0 0 0 0 0 0 0 0 0 0 0 0
0 0 0 0 0 0 0 0 0 0 0 0 0 0 0 0 0 0 0 0 0 0 0 0 0 0 0 0 0 0 0 0 0 0 0 0 0 0
0 0 0 0 0 0 0 0 0 0 0 0 0 0 0 0 0 0 0 0 0 0 0 0 0 0 0 0 0 0 0 0 0 0 0 0 0 0
0 0 0 0 0 0 0 0 0 0 0 0 0 0 0 0 0 0 0 0 0 0 0 0 0 0 0 0 0 0 0 0 0 0 0 0 0 0
0 0 0 0 0 0 0 0 0 0 0 0 0 0 0 0 0 0 0 0 0 0 0 0 0 0 0 0 0 0 0 0 0 0 0 0 0 0
0 0 0 0 0 0 0 0 0 0 0 0 0 0 0 0 0 0 0 0 0 0 0 0 0 0 0 0 0 0 0 0 0 0 0 0 0 0
0 0 0 0 0 0 0 0 0 0 0 0 0 0 0 0 0 0 0 0 0 0 0 0 0 0 0 0 0 0 0 0 0 0 0 0 0 0
0 0 0 0 0 0 0 0 0 0 0 0 0 0 0 0 0 0 0 0 0 0 0 0 0 0 0 0 0 0 0 0 0 0 0 0 0 0
0 0 0 0 0 0 0 0 0 0 0 0 0 0 0 0 0 0 0 0 0 0 0 0 0 0 0 0 0 0 0 0 0 0 0 0 0 0
0 0 0 0 0 0 0 0 0 0 0 0 0 0 0 0 0 0 0 0 0 0 0 0 0 0 0 0 0 0 0 0 0 0 0 0 0 0
0 0 0 0 0 0 0 0 0 0 0 0 0 0 0 0 0 0 0 0 0 0 0 0 0 0 0 0 0 0 0 0 0 0 0 0 0 0
0 0 0 0 0 0 0 0 0 0 0 0 0 0 0 0 0 0 0 0 0 0 0 0 0 0 0 0 0 0 0 0 0 0 0 0 0 0
0 0 0 0 0 0 0 0 0 0 0 0 0 0 0 0 0 0 0 0 0 0 0 0 0 0 0 0 0 0 0 0 0 0 0 0 0 0
0 0 0 0 0 0 0 0 0 0 0 0 0 0 0 0 0 0 0 0 0 0 0 0 0 0 0 0 0 0 0 0 0 0 0 0 0 0
0 0 0 0 0 0 0 0 0 0 0 0 0 0 0 0 0 0 0 0 0 0 0 0 0 0 0 0 0 0 0 0 0 0 0 0 0 0
0 0 0 0 0 0 0 0 0 0 0 0 0 0 0 0 0 0 0 0 0 0 0 0 0 0 0 0 0 0 0 0 0 0 0 0 0 0
0 0 0 0 0 0 0 0 0 0 0 0 0 0 0 0 0 0 0 0 0 0 0 0 0 0 0 0 0 0 0 0 0 0 0 0 0 0
0 0 0 0 0 0 0 0 0 0 0 0 0 0 0 0 0 0 0 0 0 0 0 0 0 0 0 0 0 0 0 0 0 0 0 0 0 0
0 0 0 0 0 0 0 0 0 0 0 0 0 0 0 0 0 0 0 0 0 0 0 0 0 0 0 0 0 0 0 0 0 0 0 0 0 0
0 0 0 0 0 0 0 0 0 0 0 0 0 0 0 0 0 0 0 0 0 0 0 0 0 0 0 0 0 0 0 0 0 0 0 0 0 0
0 0 0 0 0 0 0 0 0 0 0 0 0 0 0 0 0 0 0 0 0 0 0 0 0 0 0 0 0 0 0 0 0 0 0 0 0 0
Wind_Speed
4 4 3 3 3 3 3 4 5 3 2 1 1 2 2 3 4 5 5 9 10 10 10 10 11 11 11 11 11 11 11 11 11 11 11 10 10 11
3 4 3 2 2 3 3 3 3 4 3 1 1 2 2 4 7 6 7 11 11 10 10 11 11 11 10 10 10 10 10 10 10 10 11 11 11 10
4 4 4 3 2 2 2 2 3 3 4 2 2 2 4 5 5 5 6 6 7 11 10 10 10 10 10 10 9 9 9 9 10 10 10 10 10 10
4 4 4 3 3 2 2 3 3 3 5 5 2 2 4 4 5 6 5 6 6 10 11 10 10 10 10 10 9 9 8 8 8 9 9 9 9 10
5 5 4 4 3 2 3 3 3 4 4 6 4 2 3 3 4 6 7 5 6 8 10 10 10 10 10 9 8 8 7 7 7 7 7 7 8 8
3 4 4 4 5 5 4 5 5 6 6 6 5 3 3 3 4 4 5 4 5 5 7 7 9 11 10 9 8 8 6 6 5 5 5 6 6 7
4 3 4 5 6 5 5 6 6 6 6 6 5 4 3 3 3 3 5 5 4 3 4 4 4 4 4 5 6 6 5 5 5 5 5 6 6 7
5 4 4 5 7 8 9 8 8 7 7 5 4 5 4 3 3 4 4 4 3 1 2 3 2 2 2 2 4 5 5 4 5 5 5 6 6 7
5 4 4 5 7 7 10 11 9 8 7 5 6 5 4 4 5 5 3 3 3 1 2 2 2 1 1 2 4 4 4 5 5 6 6 6 7 7
4 5 6 6 6 8 9 9 8 7 6 5 5 4 4 4 4 5 5 5 4 2 1 2 1 1 1 2 4 5 5 5 6 6 6 7 7 7
5 5 6 7 9 12 11 11 9 8 11 12 11 10 10 9 8 6 5 5 3 2 1 1 1 1 1 2 3 5 6 6 7 7 7 7 7 7
5 5 8 8 10 10 10 10 10 7 7 8 9 9 8 8 7 4 5 4 3 2 1 1 1 0 0 1 2 3 3 5 7 7 7 8 8 5
5 4 5 10 10 10 8 7 9 8 7 7 6 6 6 5 5 4 3 3 3 2 2 2 1 1 0 1 2 2 3 3 4 4 6 7 8 5
5 4 6 10 11 10 8 10 12 9 6 6 5 5 4 4 4 4 4 4 3 2 2 2 1 1 1 0 1 2 3 3 3 4 5 6 6 6
6 10 11 12 11 9 11 12 9 6 6 6 5 3 3 3 3 3 4 4 5 4 2 1 2 2 1 1 1 2 3 3 3 4 5 5 4 4
8 10 12 11 9 9 8 6 4 4 5 5 4 3 3 3 3 3 3 2 3 3 3 3 1 2 1 1 1 2 3 3 4 5 5 5 4 4
8 6 5 4 5 5 4 4 4 4 4 4 4 4 3 3 3 2 2 2 2 1 1 2 2 1 2 2 1 2 3 4 4 4 5 5 5 5
7 5 5 5 5 5 5 4 3 4 3 4 4 3 3 3 3 2 2 2 2 1 1 1 2 1 1 1 4 3 3 4 4 5 4 5 6 6
5 5 5 5 5 5 5 4 4 3 3 4 4 3 3 3 3 2 2 2 1 1 0 0 1 1 1 3 2 4 4 4 5 4 4 4 6 7
3 4 4 4 4 4 4 4 4 4 3 3 3 3 3 3 3 3 2 2 1 1 0 0 1 1 1 2 3 4 4 5 4 5 5 4 6 8
4 4 4 4 4 4 4 4 4 4 4 4 3 4 3 3 3 3 2 2 2 1 1 1 1 2 2 2 3 4 4 4 6 5 5 6 6 6
4 4 4 4 4 4 4 4 4 4 4 4 4 3 3 3 3 3 3 3 2 2 2 2 2 1 1 2 4 5 5 6 5 8 10 8 5 6
4 4 4 4 4 4 4 4 5 4 4 4 4 4 4 3 3 3 3 3 2 2 2 2 1 1 2 2 3 4 6 7 5 6 6 6 10 13
Wind_Direction
196 190 195 200 193 193 178 170 165 177 194 173 127 55 77 85 84 96 101 104 104 104 102 100 99 97 94 90 85 80 74 69 65 59 53 46 40 35
189 188 199 202 193 190 187 185 176 164 164 133 105 78 90 100 91 93 96 97 95 100 101 100 100 99 95 90 85 80 74 67 61 55 51 46 41 35
187 185 198 190 181 184 172 173 169 149 147 124 85 76 81 96 92 92 93 91 92 92 96 97 96 96 94 89 84 78 72 65 59 54 50 44 40 35
190 180 190 176 168 166 157 162 157 148 143 141 121 86 78 99 99 93 88 89 90 87 89 91 92 93 91 88 81 74 68 63 58 50 45 40 34 29
183 179 176 161 159 149 143 140 133 125 122 134 129 102 88 94 93 87 81 74 85 86 84 83 87 90 89 88 83 76 68 62 55 46 37 30 25 19
163 162 160 161 163 153 143 136 127 120 118 123 123 116 103 96 105 108 96 78 75 75 74 77 81 82 83 80 77 73 65 56 48 36 25 16 10 5
141 145 145 147 150 148 144 141 138 132 131 132 132 124 128 131 136 132 119 105 75 65 79 69 71 71 68 65 64 60 56 47 37 24 12 4 358 354
139 127 119 126 125 121 124 128 136 143 148 144 144 145 151 144 133 139 137 128 112 47 81 68 56 65 51 55 40 39 36 28 20 12 4 356 351 348
138 134 120 112 113 113 103 97 94 103 126 142 143 150 150 159 146 135 123 109 114 113 108 80 40 41 11 18 15 18 16 10 5 2 358 353 347 342
123 131 127 120 118 117 107 93 80 70 84 99 116 117 119 129 130 129 121 104 87 59 70 96 40 14 356 349 355 3 3 359 355 351 348 348 345 337
102 108 117 116 118 118 112 107 95 81 77 87 93 97 104 113 121 118 121 123 108 71 41 105 93 6 335 330 344 356 353 349 344 341 341 343 341 334
101 100 109 119 123 122 122 123 117 110 105 94 83 77 81 87 93 113 137 136 128 125 116 116 113 95 29 330 328 340 348 342 338 335 334 336 336 330
118 112 109 117 118 116 117 121 127 125 115 107 98 87 79 74 70 69 80 120 125 121 139 139 129 120 116 308 316 321 337 335 333 329 330 331 329 326
127 122 119 122 119 117 112 118 120 117 115 109 103 96 92 85 77 74 76 73 67 96 128 142 135 150 141 339 321 325 325 328 326 322 328 328 324 321
116 121 119 118 112 108 113 120 119 118 119 116 113 103 91 89 88 81 72 71 70 70 82 109 133 142 161 209 294 311 315 316 322 324 323 324 320 319
109 111 107 102 100 105 111 112 112 120 123 121 117 103 96 97 88 80 81 76 76 56 44 55 93 155 164 215 254 292 300 303 312 321 317 308 306 301
123 113 110 112 112 113 110 107 110 117 115 117 120 115 110 104 91 81 84 85 89 79 37 25 27 32 224 229 263 286 301 300 302 315 314 313 310 311
124 129 134 136 138 138 138 130 122 126 127 128 127 127 127 121 108 95 96 104 105 97 52 11 1 14 18 223 226 265 293 301 309 311 306 308 311 317
123 138 144 147 147 147 145 139 135 135 132 137 135 135 131 129 126 126 123 119 119 117 42 354 356 10 347 334 313 224 263 303 309 310 309 301 299 309
139 147 150 151 151 150 148 143 139 139 138 144 146 146 147 148 150 151 154 157 163 181 247 260 248 257 270 304 304 295 256 270 298 306 310 302 289 287
155 154 156 155 156 158 156 154 152 154 155 156 158 156 156 157 165 171 173 173 184 206 249 278 297 285 258 252 278 298 298 258 250 274 298 304 311 312
165 165 162 160 163 165 161 156 155 159 162 166 166 165 165 171 178 182 185 188 205 222 251 284 308 264 225 268 300 310 312 316 293 264 254 250 288 309
173 169 165 164 164 160 159 163 168 173 177 177 173 173 173 178 187 191 196 205 215 229 250 277 289 269 270 276 291 299 304 311 315 318 311 282 260 266